Time,TemperatureF,DewpointF,PressureIn,WindDirection,WindDirectionDegrees,WindSpeedMPH,WindSpeedGustMPH,Humidity,HourlyPrecipIn,Conditions,Clouds,dailyrainin,SolarRadiationWatts/m^2,SoftwareType,DateUTC
2013-05-17 00:01:00,44.0,33.0,-100.00,WNW,290,2.0,4.0,64,0.00,,,0.09,0.000000,,2013-05-17 06:01:00,
2013-05-17 00:02:00,44.0,33.0,-100.00,NW,310,2.0,4.0,65,0.00,,,0.09,0.000000,,2013-05-17 06:02:00,
2013-05-17 00:22:00,44.0,33.0,-100.00,NW,310,2.0,4.0,65,0.00,,,0.09,0.000000,,2013-05-17 06:22:00,
2013-05-17 00:32:00,44.0,33.0,-100.00,NW,310,2.0,4.0,65,0.00,,,0.09,0.000000,,2013-05-17 06:32:00,
2013-05-17 00:42:00,44.0,33.0,-100.00,NW,310,2.0,4.0,65,0.00,,,0.09,0.000000,,2013-05-17 06:42:00,
2013-05-17 00:52:00,44.0,33.0,-100.00,NW,310,2.0,4.0,65,0.00,,,0.09,0.000000,,2013-05-17 06:52:00,
2013-05-17 01:02:00,43.0,32.0,-100.00,NW,307,2.0,2.0,64,0.00,,,0.09,0.000000,,2013-05-17 07:02:00,
2013-05-17 01:21:00,43.0,32.0,-100.00,NW,307,2.0,2.0,64,0.00,,,0.09,0.000000,,2013-05-17 07:21:00,
2013-05-17 01:32:00,43.0,32.0,-100.00,NW,307,2.0,2.0,64,0.00,,,0.09,0.000000,,2013-05-17 07:32:00,
2013-05-17 01:43:00,43.0,32.0,-100.00,NW,307,2.0,2.0,64,0.00,,,0.09,0.000000,,2013-05-17 07:43:00,
2013-05-17 01:53:00,43.0,32.0,-100.00,NW,307,2.0,2.0,64,0.00,,,0.09,0.000000,,2013-05-17 07:53:00,
2013-05-17 02:02:00,43.0,33.0,-100.00,NNW,331,2.0,4.0,67,0.00,,,0.09,0.000000,,2013-05-17 08:02:00,
2013-05-17 02:23:00,43.0,33.0,-100.00,NNW,331,2.0,4.0,67,0.00,,,0.09,0.000000,,2013-05-17 08:23:00,
2013-05-17 02:34:00,43.0,33.0,-100.00,NNW,331,2.0,4.0,67,0.00,,,0.09,0.000000,,2013-05-17 08:34:00,
2013-05-17 02:42:00,43.0,33.0,-100.00,NNW,331,2.0,4.0,67,0.00,,,0.09,0.000000,,2013-05-17 08:42:00,
2013-05-17 02:52:00,43.0,33.0,-100.00,NNW,331,2.0,4.0,67,0.00,,,0.09,0.000000,,2013-05-17 08:52:00,
2013-05-17 03:02:00,43.0,32.0,-100.00,NNW,341,2.0,3.0,66,0.00,,,0.09,0.000000,,2013-05-17 09:02:00,
2013-05-17 03:23:00,43.0,32.0,-100.00,NNW,341,2.0,3.0,66,0.00,,,0.09,0.000000,,2013-05-17 09:23:00,
2013-05-17 03:33:00,43.0,32.0,-100.00,NNW,341,2.0,3.0,66,0.00,,,0.09,0.000000,,2013-05-17 09:33:00,
2013-05-17 03:42:00,43.0,32.0,-100.00,NNW,341,2.0,3.0,66,0.00,,,0.09,0.000000,,2013-05-17 09:42:00,
2013-05-17 03:53:00,43.0,32.0,-100.00,NNW,341,2.0,3.0,66,0.00,,,0.09,0.000000,,2013-05-17 09:53:00,
2013-05-17 04:02:00,42.0,33.0,-100.00,NW,321,2.0,4.0,71,0.00,,,0.09,0.000000,,2013-05-17 10:02:00,
2013-05-17 04:23:00,42.0,33.0,-100.00,NW,321,2.0,4.0,71,0.00,,,0.09,0.000000,,2013-05-17 10:23:00,
2013-05-17 04:33:00,42.0,33.0,-100.00,NW,321,2.0,4.0,71,0.00,,,0.09,0.000000,,2013-05-17 10:33:00,
2013-05-17 04:42:00,42.0,33.0,-100.00,NW,321,2.0,4.0,71,0.00,,,0.09,0.000000,,2013-05-17 10:42:00,
2013-05-17 04:54:00,42.0,33.0,-100.00,NW,321,2.0,4.0,71,0.00,,,0.09,0.000000,,2013-05-17 10:54:00,
2013-05-17 05:02:00,42.0,33.0,-100.00,WNW,300,0.0,3.0,69,0.00,,,0.09,0.000000,,2013-05-17 11:02:00,
2013-05-17 05:34:00,42.0,33.0,-100.00,WNW,300,0.0,3.0,69,0.00,,,0.09,0.000000,,2013-05-17 11:34:00,
2013-05-17 05:42:00,42.0,33.0,-100.00,WNW,300,0.0,3.0,69,0.00,,,0.09,0.000000,,2013-05-17 11:42:00,
2013-05-17 05:53:00,42.0,33.0,-100.00,WNW,300,0.0,3.0,69,0.00,,,0.09,0.000000,,2013-05-17 11:53:00,
2013-05-17 06:02:00,42.0,33.0,-100.00,NNW,333,0.0,3.0,70,0.00,,,-99.99,0.000000,,2013-05-17 12:02:00,
2013-05-17 06:33:00,42.0,33.0,-100.00,NNW,333,0.0,3.0,70,0.00,,,-99.99,0.000000,,2013-05-17 12:33:00,
2013-05-17 06:43:00,42.0,33.0,-100.00,NNW,333,0.0,3.0,70,0.00,,,-99.99,0.000000,,2013-05-17 12:43:00,
2013-05-17 06:53:00,42.0,33.0,-100.00,NNW,333,0.0,3.0,70,0.00,,,-99.99,0.000000,,2013-05-17 12:53:00,
2013-05-17 07:33:00,42.0,34.0,-100.00,SW,235,1.0,2.0,74,0.00,,,0.09,14.000000,,2013-05-17 13:33:00,
2013-05-17 07:42:00,42.0,34.0,-100.00,SW,235,1.0,2.0,74,0.00,,,0.09,14.000000,,2013-05-17 13:42:00,
2013-05-17 07:52:00,42.0,34.0,-100.00,SW,235,1.0,2.0,74,0.00,,,0.09,14.000000,,2013-05-17 13:52:00,
2013-05-17 08:01:00,42.0,34.0,-100.00,SW,235,1.0,2.0,74,0.00,,,0.09,14.000000,,2013-05-17 14:01:00,
2013-05-17 08:02:00,41.0,35.0,-100.00,NW,313,3.0,7.0,79,0.01,,,0.08,19.000000,,2013-05-17 14:02:00,
2013-05-17 08:34:00,41.0,35.0,-100.00,NW,313,3.0,7.0,79,0.01,,,0.08,19.000000,,2013-05-17 14:34:00,
2013-05-17 08:43:00,41.0,35.0,-100.00,NW,313,3.0,7.0,79,0.01,,,0.08,19.000000,,2013-05-17 14:43:00,
2013-05-17 08:53:00,41.0,35.0,-100.00,NW,313,3.0,7.0,79,0.01,,,0.08,19.000000,,2013-05-17 14:53:00,
2013-05-17 09:02:00,41.0,38.0,-100.00,North,8,2.0,6.0,88,0.03,,,0.09,51.000000,,2013-05-17 15:02:00,
2013-05-17 09:25:00,41.0,38.0,-100.00,North,8,2.0,6.0,88,0.03,,,0.09,51.000000,,2013-05-17 15:25:00,
2013-05-17 09:47:00,41.0,38.0,-100.00,North,8,2.0,6.0,88,0.03,,,0.09,51.000000,,2013-05-17 15:47:00,
2013-05-17 09:57:00,41.0,38.0,-100.00,North,8,2.0,6.0,88,0.03,,,0.09,51.000000,,2013-05-17 15:57:00,
2013-05-17 10:02:00,44.0,40.0,-100.00,NW,318,2.0,6.0,87,0.01,,,0.07,127.000000,,2013-05-17 16:02:00,
2013-05-17 10:26:00,44.0,40.0,-100.00,NW,318,2.0,6.0,87,0.01,,,0.07,127.000000,,2013-05-17 16:26:00,
2013-05-17 10:37:00,44.0,40.0,-100.00,NW,318,2.0,6.0,87,0.01,,,0.07,127.000000,,2013-05-17 16:37:00,
2013-05-17 10:49:00,44.0,40.0,-100.00,NW,318,2.0,6.0,87,0.01,,,0.07,127.000000,,2013-05-17 16:49:00,
2013-05-17 10:56:00,44.0,40.0,-100.00,NW,318,2.0,6.0,87,0.01,,,0.07,127.000000,,2013-05-17 16:56:00,
2013-05-17 12:02:00,42.0,39.0,-100.00,SSE,156,2.0,5.0,89,-99.99,,,0.07,176.000000,,2013-05-17 18:02:00,
2013-05-17 12:30:00,42.0,39.0,-100.00,SSE,156,2.0,5.0,89,-99.99,,,0.07,176.000000,,2013-05-17 18:30:00,
2013-05-17 12:40:00,42.0,-99.9,-100.00,SSE,156,2.0,5.0,89,-99.99,,,0.07,176.000000,,2013-05-17 18:40:00,
2013-05-17 12:50:00,-999.0,-99.9,-100.00,SSE,156,2.0,5.0,89,-99.99,,,0.07,176.000000,,2013-05-17 18:50:00,
2013-05-17 13:00:00,42.0,39.0,-100.00,SSE,156,2.0,5.0,89,-99.99,,,0.07,176.000000,,2013-05-17 19:00:00,
2013-05-17 13:02:00,42.0,39.0,-100.00,North,353,3.0,7.0,89,0.10,,,0.17,174.000000,,2013-05-17 19:02:00,
2013-05-17 13:30:00,42.0,39.0,-100.00,North,353,3.0,7.0,89,0.10,,,0.17,174.000000,,2013-05-17 19:30:00,
2013-05-17 13:40:00,42.0,39.0,-100.00,North,353,3.0,7.0,89,0.10,,,0.17,174.000000,,2013-05-17 19:40:00,
2013-05-17 13:51:00,42.0,39.0,-100.00,North,353,3.0,7.0,89,0.10,,,0.17,174.000000,,2013-05-17 19:51:00,
2013-05-17 14:00:00,42.0,-99.9,-100.00,North,353,3.0,7.0,89,0.10,,,0.17,174.000000,,2013-05-17 20:00:00,
2013-05-17 14:02:00,44.0,40.0,-100.00,SE,142,2.0,8.0,86,0.02,,,0.19,266.000000,,2013-05-17 20:02:00,
2013-05-17 14:40:00,44.0,40.0,-100.00,SE,142,2.0,8.0,86,0.02,,,0.19,266.000000,,2013-05-17 20:40:00,
2013-05-17 14:50:00,44.0,40.0,-100.00,SE,142,2.0,8.0,86,0.02,,,0.19,266.000000,,2013-05-17 20:50:00,
2013-05-17 14:58:00,44.0,40.0,-100.00,SE,142,2.0,8.0,86,0.02,,,0.19,266.000000,,2013-05-17 20:58:00,
2013-05-17 15:02:00,43.0,41.0,-100.00,SE,139,2.0,6.0,91,0.01,,,0.20,179.000000,,2013-05-17 21:02:00,
2013-05-17 15:26:00,43.0,41.0,-100.00,SE,139,2.0,6.0,91,0.01,,,0.20,179.000000,,2013-05-17 21:26:00,
2013-05-17 15:39:00,43.0,41.0,-100.00,SE,139,2.0,6.0,91,0.01,,,0.20,179.000000,,2013-05-17 21:39:00,
2013-05-17 15:49:00,43.0,41.0,-100.00,SE,139,2.0,6.0,91,0.01,,,0.20,179.000000,,2013-05-17 21:49:00,
2013-05-17 15:58:00,43.0,41.0,-100.00,SE,139,2.0,6.0,91,0.01,,,0.20,179.000000,,2013-05-17 21:58:00,
2013-05-17 16:02:00,43.0,41.0,-100.00,SE,141,2.0,3.0,93,0.06,,,0.26,80.000000,,2013-05-17 22:02:00,
2013-05-17 16:28:00,43.0,41.0,-100.00,SE,141,2.0,3.0,93,0.06,,,0.26,80.000000,,2013-05-17 22:28:00,
2013-05-17 16:38:00,43.0,41.0,-100.00,SE,141,2.0,3.0,93,0.06,,,0.26,80.000000,,2013-05-17 22:38:00,
2013-05-17 16:47:00,43.0,41.0,-100.00,SE,141,2.0,3.0,93,0.06,,,0.26,80.000000,,2013-05-17 22:47:00,
2013-05-17 16:55:00,43.0,41.0,-100.00,SE,141,2.0,3.0,93,0.06,,,0.26,80.000000,,2013-05-17 22:55:00,
2013-05-17 17:02:00,42.0,40.0,-100.00,NE,51,1.0,4.0,93,0.04,,,0.30,63.000000,,2013-05-17 23:02:00,
2013-05-17 17:23:00,42.0,40.0,-100.00,NE,51,1.0,4.0,93,0.04,,,0.30,63.000000,,2013-05-17 23:23:00,
2013-05-17 17:38:00,42.0,40.0,-100.00,NE,51,1.0,4.0,93,0.04,,,0.30,63.000000,,2013-05-17 23:38:00,
2013-05-17 17:47:00,42.0,40.0,-100.00,NE,51,1.0,4.0,93,0.04,,,0.30,63.000000,,2013-05-17 23:47:00,
2013-05-17 17:54:00,42.0,40.0,-100.00,NE,51,1.0,4.0,93,0.04,,,0.30,63.000000,,2013-05-17 23:54:00,
2013-05-17 18:02:00,42.0,40.0,-100.00,ENE,64,2.0,7.0,93,0.03,,,0.33,59.000000,,2013-05-18 00:02:00,
2013-05-17 18:22:00,42.0,40.0,-100.00,ENE,64,2.0,7.0,93,0.03,,,0.33,59.000000,,2013-05-18 00:22:00,
2013-05-17 18:34:00,42.0,40.0,-100.00,ENE,64,2.0,7.0,93,0.03,,,0.33,59.000000,,2013-05-18 00:34:00,
2013-05-17 18:45:00,42.0,40.0,-100.00,ENE,64,2.0,7.0,93,0.03,,,0.33,59.000000,,2013-05-18 00:45:00,
2013-05-17 18:54:00,42.0,40.0,-100.00,ENE,64,2.0,7.0,93,0.03,,,0.33,59.000000,,2013-05-18 00:54:00,
2013-05-17 19:02:00,42.0,40.0,-100.00,NE,36,1.0,4.0,93,0.02,,,0.35,53.000000,,2013-05-18 01:02:00,
2013-05-17 19:24:00,42.0,40.0,-100.00,NE,36,1.0,4.0,93,0.02,,,0.35,53.000000,,2013-05-18 01:24:00,
2013-05-17 19:32:00,42.0,40.0,-100.00,NE,36,1.0,4.0,93,0.02,,,0.35,53.000000,,2013-05-18 01:32:00,
2013-05-17 19:43:00,42.0,40.0,-100.00,NE,36,1.0,4.0,93,0.02,,,0.35,53.000000,,2013-05-18 01:43:00,
2013-05-17 19:52:00,42.0,40.0,-100.00,NE,36,1.0,4.0,93,0.02,,,0.35,53.000000,,2013-05-18 01:52:00,
2013-05-17 20:02:00,42.0,40.0,-100.00,SSE,164,2.0,3.0,93,0.00,,,0.35,29.000000,,2013-05-18 02:02:00,
2013-05-17 20:32:00,42.0,40.0,-100.00,SSE,164,2.0,3.0,93,0.00,,,0.35,29.000000,,2013-05-18 02:32:00,
2013-05-17 20:43:00,42.0,40.0,-100.00,SSE,164,2.0,3.0,93,0.00,,,0.35,29.000000,,2013-05-18 02:43:00,
2013-05-17 20:53:00,42.0,40.0,-100.00,SSE,164,2.0,3.0,93,0.00,,,0.35,29.000000,,2013-05-18 02:53:00,
2013-05-17 21:02:00,42.0,40.0,-100.00,SSW,200,0.0,2.0,93,0.00,,,0.35,11.000000,,2013-05-18 03:02:00,
2013-05-17 21:33:00,42.0,40.0,-100.00,SSW,200,0.0,2.0,93,0.00,,,0.35,11.000000,,2013-05-18 03:33:00,
2013-05-17 21:43:00,42.0,40.0,-100.00,SSW,200,0.0,2.0,93,0.00,,,0.35,11.000000,,2013-05-18 03:43:00,
2013-05-17 21:53:00,42.0,40.0,-100.00,SSW,200,0.0,2.0,93,0.00,,,0.35,11.000000,,2013-05-18 03:53:00,
2013-05-17 22:02:00,41.0,39.0,-100.00,WNW,292,0.0,2.0,93,0.00,,,0.35,0.000000,,2013-05-18 04:02:00,
2013-05-17 22:33:00,41.0,39.0,-100.00,WNW,292,0.0,2.0,93,0.00,,,0.35,0.000000,,2013-05-18 04:33:00,
2013-05-17 22:43:00,41.0,39.0,-100.00,WNW,292,0.0,2.0,93,0.00,,,0.35,0.000000,,2013-05-18 04:43:00,
2013-05-17 22:52:00,41.0,39.0,-100.00,WNW,292,0.0,2.0,93,0.00,,,0.35,0.000000,,2013-05-18 04:52:00,
2013-05-17 23:02:00,40.0,38.0,-100.00,West,273,0.0,2.0,93,0.00,,,0.35,0.000000,,2013-05-18 05:02:00,
2013-05-17 23:22:00,40.0,38.0,-100.00,West,273,0.0,2.0,93,0.00,,,0.35,0.000000,,2013-05-18 05:22:00,
2013-05-17 23:32:00,40.0,38.0,-100.00,West,273,0.0,2.0,93,0.00,,,0.35,0.000000,,2013-05-18 05:32:00,
2013-05-17 23:42:00,40.0,38.0,-100.00,West,273,0.0,2.0,93,0.00,,,0.35,0.000000,,2013-05-18 05:42:00,
2013-05-17 23:52:00,40.0,38.0,-100.00,West,273,0.0,2.0,93,0.00,,,0.35,0.000000,,2013-05-18 05:52:00,